Weather History for Wheeling, WV

Change the Weather History Date:

Friday, October 26, 2012

  Actual Average Record
Temperature  
Mean Temperature 64 °F 50 °F  
Max Temperature 76 °F 59 °F 77 °F (2000)
Min Temperature 52 °F 41 °F 25 °F (2006)
Degree Days  
Heating Degree Days 1 15  
Month to date heating degree days 249 293  
Since 1 July heating degree days 374 394  
Cooling Degree Days 0    
Month to date cooling degree days 22  
Year to date cooling degree days 996  
Growing Degree Days 14 (Base 50)    
Moisture  
Dew Point 49 °F    
Average Humidity 66    
Maximum Humidity 89    
Minimum Humidity 42    
Precipitation  
Precipitation 0.00 in 0.08 in 0.88 in (2010)
Month to date precipitation 0.67 2.16  
Sea Level Pressure  
Sea Level Pressure 30.05 in    
Wind  
Wind Speed 9 mph (SW)    
Max Wind Speed 21 mph    
Max Gust Speed 25 mph    
Visibility 10 miles    
Events      
T = Trace of Precipitation, MM = Missing Value Source: NWS Daily Summary

Daily Weather History Graph

Daily Weather History Graph

Search for Another Location

Airport:

Trip Planner

Search our weather history database for the weather conditions in past years. The results will help you decide how hot, cold, wet, or windy it might be!

Date:

Astronomy

Oct. 26, 2012 Rise Set
Actual Time 7:45 AM EDT 6:26 PM EDT
Civil Twilight 7:17 AM EDT 6:54 PM EDT
Nautical Twilight 6:45 AM EDT 7:26 PM EDT
Astronomical Twilight 6:14 AM EDT 7:57 PM EDT
Moon 4:41 PM EDT (10/26) 4:40 AM EDT (10/26)
Length of Visible Light 11h 36m
Length of Day
10h 40m
Waxing Gibbous, 91% of the Moon is Illuminated
Oct 26
Waxing Gibbous
Oct 29
Full
Nov 6
Last Quarter
Nov 13
New
Nov 20
First Quarter

Hourly Weather History & Observations

Time (EDT) Temp. Dew Point Humidity Pressure Visibility Wind Dir Wind Speed Gust Speed Precip Events Conditions
12:53 AM 66.9 °F 43.0 °F 42% 30.01 in 10.0 mi South 10.4 mph - N/A   Clear
1:53 AM 66.0 °F 42.1 °F 42% 30.02 in 10.0 mi South 9.2 mph - N/A   Clear
2:53 AM 64.9 °F 44.1 °F 47% 30.02 in 10.0 mi South 10.4 mph - N/A   Clear
3:53 AM 64.0 °F 46.0 °F 52% 30.02 in 10.0 mi South 9.2 mph - N/A   Clear
4:53 AM 63.0 °F 48.0 °F 58% 30.03 in 10.0 mi South 10.4 mph - N/A   Clear
5:53 AM 63.0 °F 48.9 °F 60% 30.04 in 10.0 mi SSE 9.2 mph - N/A   Clear
6:53 AM 62.1 °F 48.9 °F 62% 30.06 in 10.0 mi South 4.6 mph - N/A   Clear
7:53 AM 62.1 °F 48.9 °F 62% 30.07 in 10.0 mi SSE 8.1 mph - N/A   Clear
8:53 AM 63.0 °F 51.1 °F 65% 30.09 in 10.0 mi South 5.8 mph - N/A   Clear
9:53 AM 66.0 °F 51.1 °F 59% 30.09 in 10.0 mi SW 5.8 mph - N/A   Mostly Cloudy
10:53 AM 66.9 °F 51.1 °F 57% 30.09 in 10.0 mi SW 6.9 mph - N/A   Mostly Cloudy
11:53 AM 72.0 °F 53.1 °F 51% 30.08 in 10.0 mi SW 5.8 mph - N/A   Partly Cloudy
12:53 PM 73.0 °F 53.1 °F 49% 30.06 in 10.0 mi WSW 9.2 mph - N/A   Clear
1:53 PM 75.0 °F 53.1 °F 46% 30.03 in 10.0 mi SW 11.5 mph - N/A   Clear
2:53 PM 73.0 °F 53.1 °F 49% 30.01 in 10.0 mi WNW 5.8 mph - N/A   Mostly Cloudy
3:53 PM 73.0 °F 53.1 °F 49% 30.00 in 10.0 mi WSW 4.6 mph - N/A   Overcast
4:53 PM 73.0 °F 53.1 °F 49% 29.99 in 10.0 mi NW 3.5 mph - N/A   Overcast
5:53 PM 66.9 °F 53.1 °F 61% 30.01 in 10.0 mi NNW 18.4 mph 23.0 mph N/A   Overcast
6:53 PM 61.0 °F 51.1 °F 70% 30.06 in 10.0 mi NNW 11.5 mph 20.7 mph N/A   Overcast
7:44 PM 55.4 °F 48.2 °F 77% 30.08 in 10.0 mi North 12.7 mph 19.6 mph N/A   Overcast
7:53 PM 55.9 °F 48.9 °F 77% 30.08 in 10.0 mi North 9.2 mph - N/A   Overcast
8:26 PM 53.6 °F 48.2 °F 82% 30.07 in 10.0 mi North 15.0 mph 21.9 mph N/A   Overcast
8:53 PM 54.0 °F 48.9 °F 83% 30.08 in 10.0 mi NNE 10.4 mph 17.3 mph N/A   Overcast
9:53 PM 53.1 °F 48.9 °F 86% 30.09 in 10.0 mi NNE 13.8 mph - N/A   Overcast
10:53 PM 53.1 °F 48.0 °F 83% 30.06 in 10.0 mi NNE 9.2 mph - N/A   Overcast
11:53 PM 52.0 °F 48.0 °F 86% 30.05 in 10.0 mi NNW 9.2 mph - N/A   Overcast